| time (UTC) | temp F | wind direction | speed MPH | gust MPH | rain 1hr in | rain 24hr in | rain mn in | humidity % | barometer mb |
| 20260831195804 | 66 | 149 | 4.0 | 17.0 | 0.00 | 0.50 | 0.02 | 50 | 1015.6 |
| 20260831195306 | 67 | 158 | 5.0 | 15.0 | 0.00 | 0.52 | 0.02 | 50 | 1015.7 |
| 20260831194804 | 66 | 166 | 7.0 | 18.0 | 0.00 | 0.52 | 0.02 | 49 | 1015.8 |
| 20260831194305 | 68 | 162 | 9.0 | 17.0 | 0.00 | 0.52 | 0.02 | 48 | 1015.7 |
| 20260831193804 | 68 | 169 | 7.0 | 13.0 | 0.00 | 0.52 | 0.02 | 47 | 1015.7 |
| 20260831193304 | 69 | 148 | 5.0 | 13.0 | 0.00 | 0.52 | 0.02 | 66 | 1026.7 |
| 20260831192805 | 68 | 170 | 5.0 | 12.0 | 0.00 | 0.52 | 0.02 | 48 | 1015.5 |
| 20260831192305 | 68 | 189 | 2.0 | 12.0 | 0.00 | 0.52 | 0.02 | 66 | 1027.0 |
| 20260831191805 | 66 | 167 | 6.0 | 13.0 | 0.00 | 0.52 | 0.02 | 50 | 1015.8 |
| 20260831191304 | 66 | 150 | 7.0 | 13.0 | 0.00 | 0.54 | 0.02 | 52 | 1015.9 |
| 20260831190804 | 66 | 187 | 5.0 | 14.0 | 0.00 | 0.55 | 0.02 | 53 | 1016.2 |
| 20260831185805 | 67 | 167 | 7.0 | 16.0 | 0.00 | 0.82 | 0.02 | 70 | 1026.7 |
| 20260831185306 | 68 | 153 | 7.0 | 17.0 | 0.00 | 0.84 | 0.02 | 49 | 1016.0 |
| 20260831184804 | 68 | 162 | 6.0 | 20.0 | 0.00 | 1.10 | 0.02 | 67 | 1025.7 |
| 20260831184305 | 69 | 166 | 6.0 | 14.0 | 0.00 | 1.10 | 0.02 | 47 | 1016.0 |
| 20260831183805 | 67 | 195 | 5.0 | 16.0 | 0.00 | 1.10 | 0.02 | 74 | 1028.6 |
| 20260831182804 | 71 | 158 | 4.0 | 13.0 | 0.00 | 1.10 | 0.02 | 71 | 1027.3 |
| 20260831182307 | 69 | 198 | 2.0 | 13.0 | 0.00 | 1.10 | 0.02 | 47 | 1016.2 |
| 20260831180805 | 67 | 148 | 6.0 | 12.0 | 0.00 | 1.10 | 0.02 | 74 | 1028.8 |
| 20260831180305 | 69 | 170 | 5.0 | 12.0 | 0.00 | 1.10 | 0.02 | 46 | 1016.5 |
| 20260831175306 | 68 | 190 | 2.0 | 7.0 | 0.00 | 1.10 | 0.02 | 46 | 1016.5 |
| 20260831174804 | 67 | 173 | 3.0 | 7.0 | 0.00 | 1.13 | 0.02 | 47 | 1016.4 |
| 20260831174305 | 69 | 146 | 4.0 | 7.0 | 0.00 | 1.13 | 0.02 | 58 | 1021.6 |
| 20260831173806 | 67 | 190 | 3.0 | 6.0 | 0.00 | 1.13 | 0.02 | 48 | 1016.7 |
| 20260831173305 | 68 | 94 | 2.0 | 7.0 | 0.00 | 1.13 | 0.02 | 64 | 1022.2 |
| 20260831172306 | 67 | 154 | 3.0 | 7.0 | 0.00 | 1.13 | 0.02 | 57 | 1017.0 |
| 20260831171804 | 64 | 151 | 1.0 | 9.0 | 0.00 | 1.13 | 0.02 | 59 | 1016.8 |
| 20260831171304 | 64 | 159 | 4.0 | 9.0 | 0.00 | 1.13 | 0.02 | 62 | 1016.5 |
| 20260831165804 | 63 | 177 | 2.0 | 8.0 | 0.00 | 1.13 | 0.02 | 76 | 1017.0 |
| 20260831165305 | 61 | 184 | 3.0 | 9.0 | 0.00 | 1.13 | 0.02 | 66 | 1017.0 |
| 20260831164304 | 60 | 172 | 2.0 | 5.0 | 0.00 | 1.13 | 0.02 | 69 | 1017.1 |
| 20260831163805 | 59 | 181 | 1.0 | 6.0 | 0.00 | 1.13 | 0.02 | 72 | 1021.2 |
| 20260831163305 | 58 | 167 | 3.0 | 5.0 | 0.00 | 1.13 | 0.02 | 72 | 1016.9 |
| 20260831162804 | 59 | 186 | 2.0 | 6.0 | 0.00 | 1.13 | 0.02 | 74 | 1028.2 |
| 20260831162306 | 59 | 124 | 2.0 | 6.0 | 0.00 | 1.13 | 0.02 | 72 | 1017.3 |
| 20260831161304 | 58 | 188 | 3.0 | 5.0 | 0.00 | 1.13 | 0.02 | 72 | 1016.9 |
| 20260831160805 | 57 | 208 | 1.0 | 5.0 | 0.00 | 1.13 | 0.02 | 75 | 1020.7 |
| 20260831160305 | 57 | 194 | 2.0 | 5.0 | 0.00 | 1.13 | 0.02 | 76 | 1016.8 |
| 20260831155804 | 57 | 91 | 1.0 | 3.0 | 0.00 | 1.14 | 0.02 | 75 | 1016.9 |
| 20260831155306 | 55 | 189 | 1.0 | 6.0 | 0.00 | 1.14 | 0.02 | 84 | 1016.9 |
| 20260831154804 | 55 | 42 | 5.0 | 7.0 | 0.00 | 1.14 | 0.02 | 79 | 1017.0 |
| 20260831154305 | 54 | 59 | 5.0 | 6.0 | 0.00 | 1.14 | 0.02 | 79 | 1017.0 |
| 20260831153305 | 53 | 22 | 3.0 | 7.0 | 0.00 | 1.14 | 0.02 | 83 | 1017.2 |
| 20260831152804 | 52 | 42 | 4.0 | 6.0 | 0.00 | 1.14 | 0.02 | 83 | 1017.1 |
| 20260831152306 | 52 | 64 | 6.0 | 6.0 | 0.00 | 1.14 | 0.02 | 84 | 1017.1 |
| 20260831151804 | 51 | 69 | 6.0 | 7.0 | 0.00 | 1.14 | 0.02 | 85 | 1017.4 |
| 20260831151304 | 51 | 62 | 5.0 | 7.0 | 0.00 | 1.14 | 0.02 | 87 | 1023.2 |
| 20260831150805 | 51 | 81 | 2.0 | 7.0 | 0.00 | 1.14 | 0.02 | 86 | 1017.3 |
| 20260831145804 | 50 | 31 | 3.0 | 5.0 | 0.00 | 1.18 | 0.02 | 87 | 1017.5 |
| 20260831145306 | 50 | 55 | 2.0 | 6.0 | 0.00 | 1.18 | 0.02 | 87 | 1017.5 |
| 20260831144304 | 50 | 45 | 5.0 | 7.0 | 0.00 | 1.18 | 0.02 | 88 | 1017.1 |
| 20260831143805 | 49 | 51 | 6.0 | 7.0 | 0.00 | 1.18 | 0.02 | 89 | 1017.2 |
| 20260831142804 | 49 | 41 | 4.0 | 6.0 | 0.00 | 1.18 | 0.02 | 90 | 1017.2 |
| 20260831142306 | 49 | 21 | 4.0 | 8.0 | 0.00 | 1.18 | 0.02 | 91 | 1017.2 |
| 20260831141804 | 48 | 30 | 5.0 | 6.0 | 0.00 | 1.18 | 0.02 | 92 | 1017.2 |
| 20260831141305 | 48 | 69 | 3.0 | 5.0 | 0.00 | 1.18 | 0.02 | 92 | 1017.4 |
| 20260831140805 | 46 | 37 | 3.0 | 5.0 | 0.00 | 1.18 | 0.02 | 93 | 1017.3 |
| 20260831140304 | 47 | 74 | 3.0 | 6.0 | 0.00 | 1.18 | 0.02 | 92 | 1027.8 |
| 20260831135805 | 47 | 47 | 5.0 | 6.0 | 0.00 | 1.22 | 0.02 | 92 | 1017.1 |
| 20260831135306 | 47 | 40 | 3.0 | 5.0 | 0.00 | 1.22 | 0.02 | 92 | 1027.2 |
| 20260831134805 | 46 | 76 | 2.0 | 3.0 | 0.00 | 1.22 | 0.02 | 93 | 1017.2 |
| 20260831133305 | 51 | 57 | 5.0 | 5.0 | 0.00 | 1.22 | 0.02 | 92 | 1017.0 |
| 20260831132804 | 51 | 57 | 5.0 | 5.0 | 0.00 | 1.22 | 0.02 | 92 | 1016.9 |
| 20260831132306 | 51 | 57 | 5.0 | 5.0 | 0.00 | 1.22 | 0.02 | 92 | 1017.0 |
| 20260831130804 | 51 | 57 | 5.0 | 5.0 | 0.00 | 1.22 | 0.02 | 92 | 1025.2 |
| 20260831130304 | 51 | 57 | 5.0 | 5.0 | 0.00 | 1.22 | 0.02 | 92 | 1016.5 |
| 20260831125804 | 51 | 57 | 5.0 | 5.0 | 0.00 | 1.23 | 0.02 | 92 | 1025.3 |
| 20260831125306 | 51 | 57 | 5.0 | 5.0 | 0.00 | 1.23 | 0.02 | 92 | 1016.4 |
| 20260831124804 | 51 | 57 | 5.0 | 5.0 | 0.00 | 1.23 | 0.02 | 92 | 1025.5 |
| 20260831124304 | 51 | 57 | 5.0 | 5.0 | 0.00 | 1.23 | 0.02 | 92 | 1016.4 |
| 20260831123804 | 51 | 57 | 5.0 | 5.0 | 0.00 | 1.23 | 0.02 | 92 | 1023.2 |
| 20260831123304 | 51 | 57 | 5.0 | 5.0 | 0.00 | 1.23 | 0.02 | 92 | 1016.7 |
| 20260831122804 | 51 | 57 | 5.0 | 5.0 | 0.00 | 1.23 | 0.02 | 92 | 1016.7 |
| 20260831122306 | 51 | 57 | 5.0 | 5.0 | 0.00 | 1.23 | 0.02 | 92 | 1016.7 |
| 20260831121304 | 51 | 57 | 5.0 | 5.0 | 0.00 | 1.23 | 0.02 | 92 | 1016.7 |
| 20260831120804 | 51 | 57 | 5.0 | 5.0 | 0.00 | 1.23 | 0.02 | 92 | 1016.6 |
| 20260831115804 | 52 | 57 | 5.0 | 5.0 | 0.00 | 1.23 | 0.02 | 93 | 1016.6 |
| 20260831115306 | 52 | 57 | 5.0 | 5.0 | 0.00 | 1.23 | 0.02 | 93 | 1016.5 |
| 20260831114804 | 52 | 57 | 5.0 | 5.0 | 0.00 | 1.23 | 0.02 | 93 | 1016.6 |
| 20260831114304 | 52 | 57 | 5.0 | 5.0 | 0.00 | 1.23 | 0.02 | 93 | 1016.5 |
| 20260831113804 | 52 | 57 | 5.0 | 5.0 | 0.00 | 1.23 | 0.02 | 93 | 1016.4 |
| 20260831113304 | 52 | 57 | 5.0 | 5.0 | 0.00 | 1.23 | 0.02 | 93 | 1021.8 |
| 20260831112307 | 52 | 57 | 5.0 | 5.0 | 0.00 | 1.23 | 0.02 | 93 | 1016.4 |
| 20260831111304 | 51 | 57 | 5.0 | 5.0 | 0.00 | 1.23 | 0.02 | 96 | 1016.6 |
| 20260831110804 | 51 | 57 | 5.0 | 5.0 | 0.00 | 1.23 | 0.02 | 96 | 1016.5 |
| 20260831110304 | 51 | 57 | 5.0 | 5.0 | 0.00 | 1.23 | 0.02 | 96 | 1016.6 |
| 20260831105805 | 52 | 57 | 5.0 | 5.0 | 0.00 | 1.23 | 0.02 | 92 | 1027.8 |
| 20260831105306 | 52 | 57 | 5.0 | 5.0 | 0.00 | 1.23 | 0.02 | 92 | 1016.5 |
| 20260831104804 | 52 | 57 | 5.0 | 5.0 | 0.00 | 1.23 | 0.02 | 92 | 1027.0 |
| 20260831104304 | 52 | 57 | 5.0 | 5.0 | 0.00 | 1.23 | 0.02 | 92 | 1016.5 |
| 20260831103804 | 52 | 57 | 5.0 | 5.0 | 0.00 | 1.23 | 0.02 | 92 | 1016.3 |
| 20260831103304 | 52 | 57 | 5.0 | 5.0 | 0.00 | 1.23 | 0.02 | 92 | 1016.5 |
| 20260831102804 | 52 | 57 | 5.0 | 5.0 | 0.00 | 1.23 | 0.02 | 92 | 1016.5 |
| 20260831102306 | 52 | 57 | 5.0 | 5.0 | 0.00 | 1.23 | 0.02 | 92 | 1016.6 |
| 20260831101804 | 52 | 57 | 5.0 | 5.0 | 0.00 | 1.23 | 0.02 | 92 | 1016.4 |
| 20260831101304 | 52 | 57 | 5.0 | 5.0 | 0.00 | 1.23 | 0.02 | 92 | 1016.7 |
| 20260831100804 | 52 | 57 | 5.0 | 5.0 | 0.00 | 1.23 | 0.02 | 92 | 1016.7 |
| 20260831095804 | 52 | 57 | 5.0 | 5.0 | 0.00 | 1.23 | 0.02 | 92 | 1016.6 |
| 20260831094804 | 52 | 57 | 5.0 | 5.0 | 0.00 | 1.23 | 0.02 | 92 | 1016.5 |
| 20260831094304 | 52 | 57 | 5.0 | 5.0 | 0.00 | 1.23 | 0.02 | 92 | 1016.4 |
| 20260831093304 | 52 | 57 | 5.0 | 5.0 | 0.00 | 1.23 | 0.02 | 92 | 1016.3 |
| 20260831092804 | 52 | 57 | 5.0 | 5.0 | 0.00 | 1.23 | 0.02 | 92 | 1016.5 |
| 20260831092306 | 45 | 57 | 5.0 | 5.0 | 0.00 | 1.23 | 0.02 | 92 | 1027.2 |
| 20260831091304 | 45 | 57 | 5.0 | 5.0 | 0.00 | 1.23 | 0.02 | 92 | 1020.7 |
| 20260831085804 | 46 | 57 | 5.0 | 5.0 | 0.00 | 1.23 | 0.02 | 92 | 1016.4 |
| 20260831085306 | 45 | 57 | 5.0 | 5.0 | 0.00 | 1.23 | 0.02 | 92 | 1016.4 |
| 20260831084804 | 45 | 57 | 5.0 | 5.0 | 0.00 | 1.23 | 0.02 | 92 | 1016.4 |
| 20260831084304 | 45 | 57 | 5.0 | 5.0 | 0.00 | 1.23 | 0.02 | 92 | 1016.4 |
| 20260831083804 | 46 | 57 | 5.0 | 5.0 | 0.00 | 1.23 | 0.02 | 92 | 1016.6 |
| 20260831083303 | 45 | 57 | 5.0 | 5.0 | 0.00 | 1.23 | 0.02 | 92 | 1016.5 |
| 20260831082306 | 46 | 75 | 1.0 | 3.0 | 0.00 | 1.23 | 0.02 | 91 | 1016.5 |
| 20260831081804 | 46 | 75 | 1.0 | 3.0 | 0.00 | 1.23 | 0.02 | 91 | 1027.8 |
| 20260831081306 | 46 | 75 | 1.0 | 3.0 | 0.00 | 1.23 | 0.02 | 91 | 1016.8 |
| 20260831080806 | 46 | 75 | 1.0 | 3.0 | 0.00 | 1.23 | 0.02 | 91 | 1016.7 |
| 20260831075805 | 46 | 75 | 1.0 | 3.0 | 0.00 | 1.24 | 0.02 | 91 | 1016.8 |
| 20260831075307 | 46 | 75 | 1.0 | 3.0 | 0.00 | 1.24 | 0.02 | 91 | 1016.8 |
| 20260831074806 | 46 | 75 | 1.0 | 3.0 | 0.00 | 1.24 | 0.02 | 91 | 1016.9 |
| 20260831074305 | 46 | 75 | 3.0 | 7.0 | 0.00 | 1.24 | 0.02 | 91 | 1016.8 |
| 20260831073805 | 52 | 79 | 7.0 | 7.0 | 0.00 | 1.24 | 0.02 | 96 | 1016.7 |
| 20260831073306 | 52 | 79 | 7.0 | 7.0 | 0.00 | 1.24 | 0.02 | 96 | 1027.4 |
| 20260831072805 | 52 | 79 | 7.0 | 7.0 | 0.00 | 1.24 | 0.02 | 96 | 1016.9 |
| 20260831072306 | 52 | 79 | 7.0 | 7.0 | 0.00 | 1.24 | 0.02 | 96 | 1016.8 |
| 20260831071805 | 52 | 79 | 7.0 | 7.0 | 0.00 | 1.24 | 0.02 | 96 | 1016.9 |
| 20260831071306 | 52 | 79 | 7.0 | 7.0 | 0.00 | 1.24 | 0.02 | 96 | 1016.9 |
| 20260831070305 | 52 | 79 | 7.0 | 7.0 | 0.00 | 1.24 | 0.02 | 96 | 1017.0 |
| 20260831065805 | 53 | 79 | 7.0 | 7.0 | 0.00 | 1.25 | 0.02 | 96 | 1016.8 |
| 20260831065306 | 53 | 79 | 7.0 | 7.0 | 0.00 | 1.25 | 0.02 | 96 | 1016.8 |
| 20260831064805 | 53 | 79 | 7.0 | 7.0 | 0.00 | 1.25 | 0.02 | 96 | 1026.3 |
| 20260831064305 | 53 | 79 | 7.0 | 7.0 | 0.00 | 1.25 | 0.02 | 96 | 1016.8 |
| 20260831063305 | 53 | 79 | 7.0 | 7.0 | 0.02 | 1.25 | 0.02 | 96 | 1017.0 |
| 20260831062806 | 53 | 79 | 7.0 | 7.0 | 0.02 | 1.25 | 0.02 | 96 | 1023.0 |
| 20260831062306 | 53 | 79 | 7.0 | 7.0 | 0.02 | 1.25 | 0.02 | 96 | 1016.9 |
| 20260831061806 | 53 | 79 | 7.0 | 7.0 | 0.02 | 1.25 | 0.02 | 96 | 1017.1 |
| 20260831061305 | 53 | 79 | 7.0 | 7.0 | 0.02 | 1.25 | 0.02 | 96 | 1017.0 |
| 20260831060806 | 53 | 79 | 7.0 | 7.0 | 0.02 | 1.25 | 0.02 | 96 | 1017.4 |
| 20260831055805 | 54 | 79 | 7.0 | 7.0 | 0.02 | 1.25 | 0.02 | 89 | 1017.2 |
| 20260831055306 | 54 | 79 | 7.0 | 7.0 | 0.02 | 1.25 | 0.02 | 89 | 1017.1 |
| 20260831054805 | 54 | 79 | 7.0 | 7.0 | 0.02 | 1.25 | 0.02 | 89 | 1017.2 |
| 20260831054305 | 54 | 79 | 7.0 | 7.0 | 0.02 | 1.25 | 0.02 | 89 | 1017.1 |
| 20260831053805 | 54 | 79 | 7.0 | 7.0 | 0.00 | 1.23 | 0.00 | 89 | 1017.3 |
| 20260831053305 | 54 | 79 | 7.0 | 7.0 | 0.00 | 1.23 | 0.00 | 89 | 1017.3 |
| 20260831052806 | 49 | 79 | 7.0 | 7.0 | 0.00 | 1.23 | 0.00 | 89 | 1017.3 |
| 20260831052307 | 49 | 79 | 7.0 | 7.0 | 0.00 | 1.23 | 0.00 | 94 | 1017.3 |
| 20260831051805 | 49 | 79 | 7.0 | 7.0 | 0.00 | 1.23 | 0.00 | 93 | 1017.3 |
| 20260831051305 | 49 | 79 | 7.0 | 7.0 | 0.00 | 1.23 | 0.00 | 94 | 1017.5 |
| 20260831050805 | 49 | 79 | 7.0 | 7.0 | 0.00 | 1.23 | 0.00 | 93 | 1017.6 |
| 20260831050305 | 49 | 79 | 7.0 | 7.0 | 0.00 | 1.23 | 0.00 | 93 | 1017.7 |
| 20260831045805 | 50 | 79 | 7.0 | 7.0 | 0.08 | 1.23 | 1.23 | 94 | 1017.8 |
| 20260831045306 | 51 | 79 | 7.0 | 7.0 | 0.08 | 1.23 | 1.23 | 94 | 1017.6 |
| 20260831044806 | 50 | 79 | 7.0 | 7.0 | 0.08 | 1.23 | 1.23 | 94 | 1017.8 |
| 20260831044305 | 51 | 79 | 7.0 | 7.0 | 0.08 | 1.23 | 1.23 | 94 | 1017.7 |
| 20260831043806 | 50 | 79 | 7.0 | 7.0 | 0.08 | 1.23 | 1.23 | 94 | 1028.9 |
| 20260831043305 | 51 | 79 | 7.0 | 7.0 | 0.08 | 1.23 | 1.23 | 94 | 1017.6 |
| 20260831042805 | 50 | 81 | 4.0 | 7.0 | 0.08 | 1.23 | 1.23 | 94 | 1017.4 |
| 20260831042307 | 55 | 138 | 2.0 | 5.0 | 0.08 | 1.23 | 1.23 | 93 | 1017.5 |
| 20260831041305 | 55 | 138 | 2.0 | 5.0 | 0.11 | 1.23 | 1.23 | 93 | 1018.0 |
| 20260831040805 | 55 | 138 | 2.0 | 5.0 | 0.14 | 1.23 | 1.23 | 93 | 1017.9 |
| 20260831040305 | 55 | 138 | 2.0 | 5.0 | 0.16 | 1.23 | 1.23 | 93 | 1027.9 |
| 20260831035806 | 55 | 138 | 2.0 | 5.0 | 0.10 | 1.15 | 1.15 | 86 | 1018.0 |
| 20260831035306 | 55 | 138 | 2.0 | 5.0 | 0.10 | 1.15 | 1.15 | 86 | 1018.0 |
| 20260831034805 | 55 | 138 | 2.0 | 5.0 | 0.10 | 1.15 | 1.15 | 86 | 1018.3 |
| 20260831034306 | 55 | 138 | 2.0 | 5.0 | 0.10 | 1.15 | 1.15 | 86 | 1018.7 |
| 20260831033805 | 55 | 138 | 2.0 | 5.0 | 0.10 | 1.15 | 1.15 | 86 | 1018.7 |
| 20260831032805 | 55 | 138 | 2.0 | 5.0 | 0.10 | 1.15 | 1.15 | 87 | 1027.7 |
| 20260831032306 | 55 | 138 | 2.0 | 5.0 | 0.10 | 1.15 | 1.15 | 86 | 1018.4 |
| 20260831031805 | 55 | 138 | 2.0 | 5.0 | 0.07 | 1.12 | 1.12 | 87 | 1025.0 |
| 20260831031305 | 55 | 138 | 2.0 | 5.0 | 0.07 | 1.12 | 1.12 | 86 | 1018.3 |
| 20260831030805 | 55 | 138 | 2.0 | 5.0 | 0.04 | 1.09 | 1.09 | 87 | 1018.0 |
| 20260831030305 | 55 | 138 | 2.0 | 5.0 | 0.02 | 1.07 | 1.07 | 86 | 1017.7 |
| 20260831025306 | 63 | 73 | 3.0 | 5.0 | 0.01 | 1.05 | 1.05 | 72 | 1016.8 |
| 20260831024305 | 63 | 73 | 3.0 | 5.0 | 0.01 | 1.05 | 1.05 | 72 | 1016.3 |
| 20260831023805 | 63 | 73 | 3.0 | 5.0 | 0.01 | 1.05 | 1.05 | 72 | 1016.3 |
| 20260831023306 | 63 | 73 | 3.0 | 5.0 | 0.01 | 1.05 | 1.05 | 72 | 1016.0 |
| 20260831022805 | 57 | 73 | 3.0 | 5.0 | 0.01 | 1.05 | 1.05 | 82 | 1016.0 |
| 20260831022306 | 58 | 73 | 3.0 | 5.0 | 0.01 | 1.05 | 1.05 | 73 | 1025.5 |
| 20260831021805 | 57 | 73 | 3.0 | 5.0 | 0.01 | 1.05 | 1.05 | 82 | 1015.8 |
| 20260831021305 | 58 | 73 | 3.0 | 5.0 | 0.01 | 1.05 | 1.05 | 76 | 1022.0 |
| 20260831020805 | 57 | 73 | 3.0 | 5.0 | 0.01 | 1.05 | 1.05 | 82 | 1016.0 |
| 20260831020306 | 58 | 73 | 3.0 | 5.0 | 0.01 | 1.05 | 1.05 | 82 | 1015.9 |
| 20260831015805 | 57 | 73 | 3.0 | 5.0 | 0.00 | 1.05 | 1.04 | 82 | 1015.8 |
| 20260831015306 | 58 | 73 | 3.0 | 5.0 | 0.00 | 1.05 | 1.04 | 82 | 1016.0 |
| 20260831014306 | 58 | 73 | 3.0 | 5.0 | 0.00 | 1.05 | 1.04 | 82 | 1015.7 |
| 20260831013805 | 57 | 73 | 3.0 | 5.0 | 0.00 | 1.05 | 1.04 | 82 | 1015.8 |
| 20260831013305 | 58 | 73 | 3.0 | 5.0 | 0.00 | 1.05 | 1.04 | 82 | 1015.8 |
| 20260831012805 | 57 | 68 | 1.0 | 5.0 | 0.00 | 1.05 | 1.04 | 82 | 1015.8 |
| 20260831012306 | 59 | 66 | 1.0 | 5.0 | 0.00 | 1.05 | 1.04 | 76 | 1015.8 |
| 20260831011806 | 58 | 66 | 1.0 | 5.0 | 0.00 | 1.05 | 1.04 | 69 | 1015.8 |
| 20260831011305 | 59 | 66 | 1.0 | 5.0 | 0.00 | 1.05 | 1.04 | 76 | 1015.9 |
| 20260831010804 | 58 | 66 | 1.0 | 5.0 | 0.00 | 1.05 | 1.04 | 76 | 1020.4 |
| 20260831005804 | 66 | 66 | 1.0 | 5.0 | 0.00 | 1.06 | 1.04 | 76 | 1015.8 |
| 20260831005306 | 66 | 66 | 1.0 | 5.0 | 0.00 | 1.06 | 1.04 | 59 | 1015.7 |
| 20260831004305 | 66 | 66 | 1.0 | 5.0 | 0.00 | 1.06 | 1.04 | 76 | 1024.6 |
| 20260831003805 | 66 | 66 | 1.0 | 5.0 | 0.00 | 1.06 | 1.04 | 76 | 1015.8 |
| 20260831003304 | 66 | 66 | 1.0 | 5.0 | 0.00 | 1.06 | 1.04 | 76 | 1019.9 |
| 20260831002806 | 58 | 75 | 3.0 | 5.0 | 0.00 | 1.06 | 1.04 | 76 | 1015.9 |
| 20260831002306 | 66 | 58 | 3.0 | 5.0 | 0.00 | 1.06 | 1.04 | 77 | 1015.7 |
| 20260831001806 | 66 | 58 | 3.0 | 5.0 | 0.00 | 1.06 | 1.04 | 61 | 1015.7 |
| 20260831001304 | 66 | 58 | 3.0 | 5.0 | 0.00 | 1.06 | 1.04 | 77 | 1019.2 |
| 20260831000305 | 66 | 58 | 3.0 | 5.0 | 0.00 | 1.06 | 1.04 | 77 | 1019.0 |
| 20260830235805 | 60 | 65 | 3.0 | 5.0 | 0.00 | 1.06 | 1.04 | 61 | 1015.9 |
| 20260830235306 | 60 | 65 | 3.0 | 5.0 | 0.00 | 1.06 | 1.04 | 73 | 1015.6 |
| 20260830234805 | 61 | 63 | 5.0 | 6.0 | 0.00 | 1.06 | 1.04 | 64 | 1015.7 |
| 20260830234305 | 61 | 62 | 4.0 | 6.0 | 0.00 | 1.06 | 1.04 | 66 | 1025.1 |
| 20260830233804 | 63 | 63 | 2.0 | 5.0 | 0.00 | 1.06 | 1.04 | 61 | 1015.8 |
| 20260830232805 | 62 | 61 | 4.0 | 6.0 | 0.00 | 1.06 | 1.04 | 63 | 1016.1 |
| 20260830232306 | 61 | 64 | 4.0 | 6.0 | 0.00 | 1.06 | 1.04 | 69 | 1015.9 |
| 20260830230806 | 60 | 46 | 3.0 | 5.0 | 0.00 | 1.06 | 1.04 | 70 | 1024.4 |
| 20260830225805 | 59 | 67 | 5.0 | 8.0 | 0.00 | 1.06 | 1.04 | 73 | 1025.2 |
| 20260830225305 | 58 | 78 | 3.0 | 6.0 | 0.00 | 1.06 | 1.04 | 74 | 1016.0 |
| 20260830224804 | 59 | 53 | 3.0 | 5.0 | 0.00 | 1.06 | 1.04 | 74 | 1025.0 |
| 20260830224305 | 59 | 65 | 3.0 | 5.0 | 0.00 | 1.06 | 1.04 | 73 | 1016.2 |
| 20260830223805 | 59 | 46 | 3.0 | 6.0 | 0.00 | 1.06 | 1.04 | 72 | 1026.2 |
| 20260830223306 | 58 | 64 | 4.0 | 9.0 | 0.00 | 1.06 | 1.04 | 73 | 1016.1 |
| 20260830222804 | 59 | 71 | 6.0 | 9.0 | 0.00 | 1.06 | 1.04 | 72 | 1016.0 |
| 20260830221804 | 58 | 63 | 5.0 | 7.0 | 0.00 | 1.06 | 1.04 | 80 | 1016.2 |
| 20260830221304 | 57 | 57 | 5.0 | 7.0 | 0.00 | 1.06 | 1.04 | 82 | 1026.1 |
| 20260830220804 | 58 | 50 | 2.0 | 7.0 | 0.00 | 1.06 | 1.04 | 85 | 1016.4 |
| 20260830220305 | 56 | 35 | 4.0 | 7.0 | 0.00 | 1.06 | 1.04 | 85 | 1016.8 |
| 20260830215805 | 57 | 69 | 5.0 | 7.0 | 0.06 | 1.06 | 1.04 | 84 | 1016.7 |
| 20260830215306 | 55 | 46 | 3.0 | 6.0 | 0.06 | 1.06 | 1.04 | 87 | 1017.0 |
| 20260830214805 | 55 | 52 | 4.0 | 6.0 | 0.07 | 1.06 | 1.04 | 88 | 1022.8 |
| 20260830214305 | 54 | 56 | 2.0 | 6.0 | 0.09 | 1.06 | 1.04 | 89 | 1017.3 |
| 20260830212306 | 53 | 81 | 3.0 | 6.0 | 0.14 | 1.06 | 1.04 | 89 | 1017.8 |
| 20260830211804 | 54 | 227 | 1.0 | 5.0 | 0.16 | 1.06 | 1.04 | 88 | 1017.8 |
| 20260830211305 | 52 | 63 | 2.0 | 3.0 | 0.18 | 1.06 | 1.04 | 89 | 1017.9 |
| 20260830205306 | 52 | 20 | 3.0 | 7.0 | 0.25 | 1.00 | 0.98 | 92 | 1017.8 |
| 20260830204805 | 52 | 59 | 4.0 | 7.0 | 0.24 | 0.99 | 0.97 | 92 | 1017.7 |
| 20260830203804 | 52 | 200 | 3.0 | 9.0 | 0.20 | 0.95 | 0.93 | 91 | 1018.3 |
| 20260830201804 | 52 | 158 | 1.0 | 5.0 | 0.15 | 0.90 | 0.88 | 90 | 1017.9 |
| 20260830201305 | 53 | 210 | 1.0 | 5.0 | 0.15 | 0.88 | 0.86 | 90 | 1017.8 |
| 20260830200805 | 53 | 75 | 2.0 | 5.0 | 0.14 | 0.87 | 0.84 | 88 | 1026.3 |